Voltar ao catálogo

SL-6 R/B(2)

AtivoHEO
NORAD 19611·ROCKET BODY·🇷🇺 Russia

Lançado Oct 25, 1988 de Plesetsk Cosmodrome

Loading…

Próximas Passagens (próximas 24 horas)

TLE

AtualizadoSource: Space-Track

Época: Sep 13, 2026, 03:12 UTC

1 19611U 88096D   26256.13367920 -.00000481  00000-0  00000-0 0  9995
2 19611  67.4678 352.0658 6315300  28.3250 354.7849  2.04280254282510

Acompanhe SL-6 R/B(2) em tempo real com AllMySat

Download on the App Store